Location: Ar Ranvel
(48.3000°N, 4.8833°W)
Time: 22:09:53
(UTC+00:00)

BlueWalker 3 - Pass Details

Date: 13 December 2022
Orbit: 499 x 517 km, 53.2° (Epoch: 04 February)

Event Time Altitude Azimuth Distance (km) Brightness Sun altitude
Rises 17:32:49 0° 294° (WNW) 2,631 6.3 -10.7°
Reaches altitude 10° 17:35:11 10° 283° (WNW) 1,737 5.5 -11.0°
Maximum altitude 17:38:39 31° 221° (SW) 923 4.0 -11.6°
Drops below altitude 10° 17:42:06 10° 159° (SSE) 1,716 4.7 -12.1°
Sets 17:44:26 0° 148° (SSE) 2,593 5.5 -12.5°
